This demonstration page uses our WeatherBlox Daily Observations layout. Learn more.

40.92945, -100.16068

Hourly Observations for May 16, 2018

Temp ( °F °C ) Dew Point ( °F °C ) Humidity (%) Winds ( mph kmh ) Pressure ( in mb ) Visibility ( mi km ) Precip ( " mm )
12:15 am 00:15 Clear 63 17.2 56 13.5 79 79 SE 6 9 29.97 1015 10 16.0934 0 0
12:35 am 00:35 Clear 62 16.5 56 13.2 81 81 ESE 6 9 30 1016 10 16.0934 0 0
12:55 am 00:55 Clear 62 16.4 56 13.1 81 81 SSE 5 7 30 1016 10 16.0934 0 0
1:15 am 01:15 Clear 60 15.3 54 12.4 83 83 E 3 6 30 1016 10 16.0934 0 0
1:35 am 01:35 Clear 59 15.2 55 13 87 87 SE 3 6 30 1016 10 16.0934 0 0
1:55 am 01:55 Clear 59 14.8 54 12.1 84 84 SE 5 7 30 1016 10 16.0934 0 0
2:15 am 02:15 Clear 59 14.9 54 12.1 83 83 ESE 3 6 30 1016 10 16.0934 0 0
2:35 am 02:35 Clear 58 14.2 54 12 87 87 Calm 30 1016 10 16.0934 0 0
2:55 am 02:55 Clear 57 13.8 54 12.1 90 90 SSE 3 6 30 1016 7 11.26538 0 0
3:15 am 03:15 Clear 58 14.2 54 12 87 87 SSE 3 6 30 1016 7 11.26538 0 0
3:35 am 03:35 Clear 57 14.1 54 12 87 87 SE 5 7 30 1016 7 11.26538 0 0
3:55 am 03:55 Clear 57 14 53 11.9 87 87 Calm 30 1016 7 11.26538 0 0
4:15 am 04:15 Clear 55 13 53 11.4 90 90 Calm 30.03 1017 7 11.26538 0 0
4:35 am 04:35 Clear 55 12.9 53 11.6 92 92 SSE 3 6 30.03 1017 7 11.26538 0 0
4:55 am 04:55 Clear 57 13.7 54 12.1 90 90 Calm 30 1016 7 11.26538 0 0
5:15 am 05:15 Clear 54 12.2 52 11 92 92 SE 5 7 30.03 1017 7 11.26538 0 0
5:35 am 05:35 Clear with Mist and Fog 54 12.3 52 11 92 92 Calm 30.03 1017 5 8.0467 0 0
5:55 am 05:55 Clear with Mist and Fog 54 12.2 52 11.3 94 94 Calm 30.03 1017 5 8.0467 0 0
6:15 am 06:15 Clear with Mist and Fog 54 12.1 52 11.3 95 95 Calm 30.03 1017 2.5 4.02335 0 0
6:35 am 06:35 Sunny with Mist and Fog 53 11.4 51 10.5 94 94 Calm 30.03 1017 3 4.82802 0 0
6:55 am 06:55 Sunny with Mist and Fog 54 12.2 53 11.4 95 95 ENE 5 7 30.03 1017 3 4.82802 0 0
7:15 am 07:15 Sunny with Mist and Fog 56 13.2 54 12.4 95 95 NE 6 9 30.03 1017 2.5 4.02335 0 0
7:35 am 07:35 Sunny with Mist and Fog 57 13.8 55 13 95 95 N 3 6 30 1016 3 4.82802 0 0
7:55 am 07:55 Mostly Cloudy with Mist and Fog 58 14.5 56 13.5 94 94 NE 5 7 30 1016 3 4.82802 0 0
8:15 am 08:15 Partly Cloudy with Mist and Fog 60 15.4 58 14.4 94 94 Calm 30 1016 3 4.82802 0 0
8:35 am 08:35 Sunny 63 17.4 59 14.8 85 85 S 6 9 29.97 1015 7 11.26538 0 0
8:55 am 08:55 Hazy 64 17.9 59 15.1 84 84 S 6 9 29.97 1015 5 8.0467 0 0
9:15 am 09:15 Sunny 66 18.7 60 15.6 82 82 S 8 13 29.97 1015 7 11.26538 0 0
9:35 am 09:35 Sunny 68 20.1 61 16.1 78 78 SSE 9 15 29.97 1015 10 16.0934 0 0
9:55 am 09:55 Sunny 71 21.5 61 15.9 71 71 S 12 19 29.94 1014 10 16.0934 0 0
10:15 am 10:15 Sunny 72 22.2 60 15.7 67 67 S 10 17 29.94 1014 10 16.0934 0 0
10:35 am 10:35 Sunny 73 23 61 15.9 64 64 S 9 15 29.94 1014 10 16.0934 0 0
10:55 am 10:55 Sunny 74 23.2 60 15.8 63 63 S 12 19 29.94 1014 10 16.0934 0 0
11:15 am 11:15 Sunny 74 23.6 61 15.9 62 62 S 12 19 29.94 1014 10 16.0934 0 0
11:35 am 11:35 Sunny 76 24.2 61 16.1 61 61 SSW 10 17 29.91 1013 10 16.0934 0 0
11:55 am 11:55 Sunny 76 24.2 60 15.8 60 60 S 8 13 29.91 1013 10 16.0934 0 0
12:15 pm 12:15 Partly Cloudy 76 24.6 60 15.7 58 58 SSE 9 15 29.91 1013 10 16.0934 0 0
12:35 pm 12:35 Partly Cloudy 76 24.4 60 15.8 59 59 SW 8 13 29.91 1013 10 16.0934 0 0
12:55 pm 12:55 Mostly Cloudy 78 25.6 60 15.4 53 53 S 7 11 29.91 1013 10 16.0934 0 0
1:15 pm 13:15 Mostly Cloudy 78 25.4 58 14.6 51 51 SE 10 17 29.91 1013 10 16.0934 0 0
1:35 pm 13:35 Partly Cloudy 78 25.6 59 15.1 52 52 SE 8 13 29.88 1012 10 16.0934 0 0
1:55 pm 13:55 Partly Cloudy 80 26.4 59 14.9 49 49 SE 8 13 29.88 1012 10 16.0934 0 0
2:15 pm 14:15 Partly Cloudy 78 25.5 59 14.9 52 52 SE 7 11 29.88 1012 10 16.0934 0 0
2:35 pm 14:35 Mostly Cloudy 80 26.4 56 13.5 45 45 SE 8 13 29.88 1012 10 16.0934 0 0
2:55 pm 14:55 Mostly Cloudy 81 27 58 14.2 45 45 SSE 9 15 29.85 1011 10 16.0934 0 0
3:15 pm 15:15 Partly Cloudy 80 26.8 57 13.7 45 45 SSE 8 13 29.88 1012 10 16.0934 0 0
3:35 pm 15:35 Partly Cloudy 80 26.9 56 13.2 43 43 SE 7 11 29.83 1010 10 16.0934 0 0
3:55 pm 15:55 Partly Cloudy 81 27.3 55 12.5 40 40 SSE 6 9 29.83 1010 10 16.0934 0 0
4:15 pm 16:15 Sunny 82 27.6 56 13.6 42 42 SSE 6 9 29.83 1010 10 16.0934 0 0
4:35 pm 16:35 Sunny 82 27.6 56 13.2 41 41 SE 9 15 29.83 1010 10 16.0934 0 0
4:55 pm 16:55 Partly Cloudy 82 27.8 56 13.2 41 41 SE 5 7 29.83 1010 10 16.0934 0 0
5:15 pm 17:15 Partly Cloudy 82 27.6 56 13.2 41 41 SE 5 7 29.83 1010 10 16.0934 0 0
5:35 pm 17:35 Sunny 82 27.6 55 12.8 40 40 SE 8 13 29.83 1010 10 16.0934 0 0
5:55 pm 17:55 Sunny 82 27.7 54 12.1 38 38 SE 8 13 29.8 1009 10 16.0934 0 0
6:15 pm 18:15 Sunny 82 27.5 55 13 41 41 ESE 8 13 29.8 1009 10 16.0934 0 0
6:40 pm 18:40 Sunny 81 27.2 54 12.1 39 39 ESE 7 11 29.8 1009 10 16.0934 0 0
6:55 pm 18:55 Sunny 80 26.8 55 12.7 42 42 ESE 7 11 29.8 1009 10 16.0934 0 0
7:15 pm 19:15 Sunny 79 26.2 55 12.5 43 43 ESE 9 15 29.83 1010 10 16.0934 0 0
7:35 pm 19:35 Sunny 79 26 56 13.1 45 45 ESE 7 11 29.83 1010 10 16.0934 0 0
7:55 pm 19:55 Sunny 78 25.4 55 12.9 46 46 ESE 10 17 29.83 1010 10 16.0934 0 0
8:15 pm 20:15 Sunny 75 23.7 56 13.5 53 53 ESE 7 11 29.83 1010 10 16.0934 0 0
8:35 pm 20:35 Sunny 73 22.7 56 13.1 55 55 ESE 8 13 29.85 1011 10 16.0934 0 0
8:55 pm 20:55 Clear 72 22.4 55 13 55 55 ESE 9 15 29.85 1011 10 16.0934 0 0
9:15 pm 21:15 Clear 72 22 55 12.7 56 56 SE 7 11 29.85 1011 10 16.0934 0 0
9:35 pm 21:35 Clear 70 20.9 55 13 61 61 ESE 7 11 29.85 1011 10 16.0934 0 0
9:55 pm 21:55 Clear 70 21 55 12.6 59 59 ESE 8 13 29.88 1012 10 16.0934 0 0
10:15 pm 22:15 Clear 69 20.5 55 12.8 61 61 ESE 7 11 29.88 1012 10 16.0934 0 0
10:35 pm 22:35 Clear 68 20 55 12.8 63 63 ESE 7 11 29.88 1012 10 16.0934 0 0
10:55 pm 22:55 Clear 66 19.1 55 13 68 68 ESE 7 11 29.91 1013 10 16.0934 0 0
11:15 pm 23:15 Clear 67 19.7 55 12.5 63 63 ESE 7 11 29.88 1012 10 16.0934 0 0
11:35 pm 23:35 Clear 67 19.6 54 12.3 63 63 ESE 7 11 29.88 1012 10 16.0934 0 0
11:55 pm 23:55 Clear 66 19.1 54 12.1 64 64 SE 6 9 29.91 1013 10 16.0934 0 0

Powered by AerisWeather